WMT6QH LATI-LIMC

Flight info

Callsign WMT6QH
Flight time 1h 40m
Altitude 36000
Route DIRES DCT PAPIZ DCT PES DCT TUFTE DCT LOMED DCT BEROK DCT MIVKI DCT GOLAS T648 MEBUR
Aircraft A321/M-SDE1E2E3GIJ1J4RWXY/LB1

Departure

Time 2026-05-01 07:26
Airport Tirana International Airport Mother Teresa (LATI)

Arrival

Time 2026-05-01 09:06
Airport Milan Malpensa International Airport (LIMC)
Time Latitude Longitude Altitude Speed Heading
2026-05-01 07:23 41.40572 19.71784 165 ft 28 kts 174°
2026-05-01 07:23 41.40343 19.71869 167 ft 15 kts 143°
2026-05-01 07:24 41.40259 19.71951 167 ft 15 kts 142°
2026-05-01 07:24 41.40241 19.72067 167 ft 13 kts 84°
2026-05-01 07:24 41.40255 19.72191 168 ft 14 kts 70°
2026-05-01 07:24 41.40302 19.72214 169 ft 6 kts 355°
2026-05-01 07:25 41.40355 19.72207 164 ft 13 kts 354°
2026-05-01 07:25 41.40643 19.72169 134 ft 78 kts 354°
2026-05-01 07:25 41.41407 19.72066 124 ft 141 kts 354°
2026-05-01 07:25 41.42494 19.71909 537 ft 159 kts 355°
2026-05-01 07:26 41.43584 19.71763 1360 ft 157 kts 356°
2026-05-01 07:26 41.44725 19.71612 1791 ft 175 kts 355°
2026-05-01 07:26 41.46009 19.71447 2105 ft 196 kts 358°
2026-05-01 07:26 41.47453 19.71265 2356 ft 221 kts 358°
2026-05-01 07:27 41.49069 19.71060 2753 ft 244 kts 358°
2026-05-01 07:27 41.50771 19.70839 3385 ft 254 kts 358°
2026-05-01 07:27 41.52547 19.70603 4144 ft 259 kts 358°
2026-05-01 07:27 41.54355 19.70358 4971 ft 263 kts 358°
2026-05-01 07:28 41.56185 19.70109 5721 ft 267 kts 358°
2026-05-01 07:28 41.58043 19.69857 6533 ft 270 kts 358°
2026-05-01 07:28 41.59919 19.69605 7288 ft 272 kts 356°
2026-05-01 07:28 41.61735 19.68832 8014 ft 282 kts 327°
2026-05-01 07:29 41.62975 19.66961 8713 ft 290 kts 296°
2026-05-01 07:29 41.63345 19.64317 9488 ft 295 kts 265°
2026-05-01 07:29 41.62674 19.61746 10213 ft 298 kts 234°
2026-05-01 07:29 41.61107 19.59961 10848 ft 301 kts 204°
2026-05-01 07:30 41.59095 19.58885 11084 ft 323 kts 204°
2026-05-01 07:30 41.57022 19.57489 11231 ft 344 kts 210°
2026-05-01 07:30 41.54930 19.55827 11666 ft 354 kts 212°
2026-05-01 07:30 41.52824 19.54083 12297 ft 358 kts 213°
2026-05-01 07:31 41.50692 19.52342 12959 ft 361 kts 213°
2026-05-01 07:31 41.44080 19.47278 14841 ft 370 kts 211°
2026-05-01 07:32 41.39532 19.43959 16052 ft 375 kts 211°
2026-05-01 07:32 41.37236 19.42280 16655 ft 378 kts 211°
2026-05-01 07:33 41.32599 19.38873 17867 ft 383 kts 211°
2026-05-01 07:33 41.30257 19.37151 18433 ft 386 kts 212°
2026-05-01 07:33 41.25523 19.33681 19462 ft 391 kts 212°
2026-05-01 07:34 41.23136 19.31929 19997 ft 393 kts 212°
2026-05-01 07:34 41.18329 19.28402 21062 ft 397 kts 212°
2026-05-01 07:34 41.15901 19.26627 21581 ft 399 kts 212°
2026-05-01 07:35 41.13462 19.24846 22087 ft 402 kts 212°
2026-05-01 07:35 41.11006 19.23058 22588 ft 404 kts 212°
2026-05-01 07:35 41.08536 19.21263 23072 ft 406 kts 212°
2026-05-01 07:35 41.06154 19.19273 23527 ft 404 kts 221°
2026-05-01 07:36 41.04068 19.16796 23952 ft 402 kts 231°
2026-05-01 07:36 41.02190 19.14053 24352 ft 403 kts 232°
2026-05-01 07:36 41.00306 19.11297 24762 ft 404 kts 232°
2026-05-01 07:36 40.98414 19.08545 25155 ft 405 kts 232°
2026-05-01 07:37 40.94627 19.03052 25938 ft 407 kts 233°
2026-05-01 07:37 40.93007 19.00018 26319 ft 402 kts 246°
2026-05-01 07:37 40.91959 18.96631 26689 ft 397 kts 258°
2026-05-01 07:38 40.91511 18.93057 27073 ft 393 kts 270°
2026-05-01 07:38 40.91663 18.89467 27470 ft 391 kts 281°
2026-05-01 07:38 40.93537 18.82732 28206 ft 393 kts 294°
2026-05-01 07:39 40.94697 18.79449 28571 ft 394 kts 294°
2026-05-01 07:39 40.95855 18.76159 28915 ft 395 kts 294°
2026-05-01 07:39 40.98156 18.69579 29600 ft 398 kts 294°
2026-05-01 07:40 40.99320 18.66246 29952 ft 399 kts 294°
2026-05-01 07:40 41.00487 18.62904 30283 ft 401 kts 294°
2026-05-01 07:40 41.01658 18.59548 30540 ft 402 kts 294°
2026-05-01 07:40 41.02828 18.56186 30867 ft 402 kts 294°
2026-05-01 07:41 41.03996 18.52819 31182 ft 402 kts 294°
2026-05-01 07:41 41.05164 18.49446 31477 ft 403 kts 294°
2026-05-01 07:41 41.07505 18.42688 32070 ft 404 kts 294°
2026-05-01 07:42 41.08681 18.39301 32355 ft 405 kts 294°
2026-05-01 07:42 41.09857 18.35910 32633 ft 406 kts 294°
2026-05-01 07:42 41.11033 18.32509 32905 ft 406 kts 294°
2026-05-01 07:42 41.12209 18.29098 33181 ft 407 kts 294°
2026-05-01 07:43 41.13382 18.25682 33456 ft 407 kts 294°
2026-05-01 07:43 41.14556 18.22256 33723 ft 408 kts 294°
2026-05-01 07:43 41.16909 18.15395 34240 ft 409 kts 294°
2026-05-01 07:44 41.18870 18.09682 34607 ft 410 kts 294°
2026-05-01 07:44 41.21242 18.02739 35051 ft 410 kts 294°
2026-05-01 07:45 41.22403 17.99330 35268 ft 411 kts 294°
2026-05-01 07:45 41.23579 17.95875 35489 ft 411 kts 294°
2026-05-01 07:45 41.24758 17.92416 35694 ft 411 kts 294°
2026-05-01 07:45 41.25937 17.88953 35921 ft 411 kts 294°
2026-05-01 07:46 41.27115 17.85485 36118 ft 412 kts 294°
2026-05-01 07:46 41.28294 17.82012 36192 ft 412 kts 294°
2026-05-01 07:47 41.31821 17.71583 36203 ft 412 kts 294°
2026-05-01 07:47 41.34169 17.64624 36201 ft 412 kts 294°
2026-05-01 07:48 41.37686 17.54160 36207 ft 413 kts 294°
2026-05-01 07:48 41.40033 17.47163 36208 ft 414 kts 294°
2026-05-01 07:49 41.43545 17.36644 36212 ft 415 kts 294°
2026-05-01 07:50 41.45882 17.29606 36210 ft 415 kts 294°
2026-05-01 07:50 41.49369 17.19074 36216 ft 416 kts 294°
2026-05-01 07:51 41.51695 17.12053 36218 ft 417 kts 294°
2026-05-01 07:52 41.55203 17.01430 36220 ft 417 kts 294°
2026-05-01 07:52 41.57537 16.94328 36222 ft 418 kts 294°
2026-05-01 07:53 41.61038 16.83652 36226 ft 419 kts 294°
2026-05-01 07:53 41.63370 16.76517 36231 ft 419 kts 294°
2026-05-01 07:55 41.69187 16.58605 36239 ft 421 kts 294°
2026-05-01 07:56 41.74991 16.40617 36245 ft 422 kts 294°
2026-05-01 07:57 41.78467 16.29784 36251 ft 423 kts 294°
2026-05-01 07:58 41.83106 16.15273 36271 ft 424 kts 294°
2026-05-01 07:59 41.87742 16.00697 36282 ft 425 kts 294°
2026-05-01 08:00 41.94678 15.78737 36283 ft 426 kts 294°
2026-05-01 08:01 41.99277 15.64083 36289 ft 427 kts 294°
2026-05-01 08:02 42.02711 15.53073 36283 ft 428 kts 294°
2026-05-01 08:03 42.06150 15.41986 36286 ft 428 kts 294°
2026-05-01 08:03 42.09594 15.30879 36290 ft 429 kts 294°
2026-05-01 08:04 42.14163 15.16042 36292 ft 429 kts 294°
2026-05-01 08:05 42.17578 15.04897 36292 ft 429 kts 295°
2026-05-01 08:06 42.20987 14.93739 36299 ft 429 kts 295°
2026-05-01 08:07 42.25505 14.78845 36308 ft 429 kts 295°
2026-05-01 08:08 42.28884 14.67663 36309 ft 429 kts 295°
2026-05-01 08:09 42.33354 14.52798 36325 ft 428 kts 295°
2026-05-01 08:09 42.35583 14.45332 36330 ft 428 kts 295°
2026-05-01 08:10 42.40035 14.30383 36336 ft 429 kts 295°
2026-05-01 08:11 42.44531 14.15428 36339 ft 428 kts 297°
2026-05-01 08:12 42.48380 14.04527 36339 ft 428 kts 299°
2026-05-01 08:13 42.52266 13.93633 36335 ft 428 kts 298°
2026-05-01 08:13 42.56059 13.82655 36341 ft 429 kts 298°
2026-05-01 08:14 42.58587 13.75322 36339 ft 429 kts 298°
2026-05-01 08:14 42.61118 13.67984 36339 ft 429 kts 298°
2026-05-01 08:15 42.64890 13.57016 36330 ft 429 kts 298°
2026-05-01 08:16 42.67408 13.49664 36325 ft 429 kts 298°
2026-05-01 08:16 42.70581 13.42900 36326 ft 424 kts 310°
2026-05-01 08:17 42.74192 13.36560 36323 ft 424 kts 310°
2026-05-01 08:17 42.77795 13.30203 36318 ft 424 kts 310°
2026-05-01 08:18 42.81385 13.23831 36313 ft 424 kts 310°
2026-05-01 08:19 42.88558 13.11066 36319 ft 424 kts 310°
2026-05-01 08:19 42.92142 13.04673 36319 ft 424 kts 310°
2026-05-01 08:20 42.95721 12.98275 36310 ft 424 kts 311°
2026-05-01 08:20 42.99303 12.91866 36337 ft 425 kts 311°
2026-05-01 08:21 43.02881 12.85448 36335 ft 425 kts 311°
2026-05-01 08:21 43.06456 12.79022 36337 ft 424 kts 311°
2026-05-01 08:22 43.10019 12.72593 36345 ft 424 kts 311°
2026-05-01 08:22 43.13580 12.66168 36347 ft 424 kts 311°
2026-05-01 08:23 43.17109 12.59774 36347 ft 423 kts 311°
2026-05-01 08:23 43.20653 12.53332 36345 ft 423 kts 311°
2026-05-01 08:24 43.24196 12.46895 36347 ft 422 kts 311°
2026-05-01 08:24 43.27728 12.40459 36348 ft 422 kts 311°
2026-05-01 08:25 43.31251 12.34017 36348 ft 422 kts 311°
2026-05-01 08:25 43.34778 12.27574 36352 ft 422 kts 311°
2026-05-01 08:26 43.38294 12.21127 36354 ft 421 kts 312°
2026-05-01 08:26 43.41802 12.14672 36357 ft 422 kts 312°
2026-05-01 08:27 43.45307 12.08209 36364 ft 422 kts 312°
2026-05-01 08:27 43.48810 12.01739 36358 ft 421 kts 312°
2026-05-01 08:28 43.52309 11.95263 36361 ft 421 kts 312°
2026-05-01 08:28 43.55799 11.88784 36353 ft 421 kts 312°
2026-05-01 08:29 43.59287 11.82302 36356 ft 421 kts 312°
2026-05-01 08:29 43.62770 11.75811 36355 ft 421 kts 312°
2026-05-01 08:30 43.66251 11.69310 36354 ft 421 kts 312°
2026-05-01 08:30 43.69734 11.62804 36355 ft 421 kts 312°
2026-05-01 08:31 43.73211 11.56280 36354 ft 421 kts 312°
2026-05-01 08:31 43.76096 11.50843 36367 ft 422 kts 312°
2026-05-01 08:32 43.79569 11.44293 36367 ft 422 kts 312°
2026-05-01 08:32 43.83042 11.37736 36367 ft 423 kts 312°
2026-05-01 08:33 43.86520 11.31170 36358 ft 423 kts 312°
2026-05-01 08:33 43.89997 11.24594 36358 ft 423 kts 312°
2026-05-01 08:34 43.93445 11.18060 36355 ft 423 kts 312°
2026-05-01 08:34 43.96911 11.11458 36358 ft 423 kts 312°
2026-05-01 08:35 44.00372 11.04839 36351 ft 423 kts 311°
2026-05-01 08:35 44.03288 10.97659 36348 ft 436 kts 295°
2026-05-01 08:36 44.05044 10.89533 36342 ft 439 kts 293°
2026-05-01 08:36 44.06779 10.81389 36338 ft 439 kts 293°
2026-05-01 08:37 44.08522 10.73236 36338 ft 440 kts 292°
2026-05-01 08:37 44.10262 10.65090 36334 ft 439 kts 292°
2026-05-01 08:38 44.11986 10.56940 36333 ft 439 kts 292°
2026-05-01 08:38 44.13705 10.48789 36337 ft 439 kts 292°
2026-05-01 08:39 44.15413 10.40627 36338 ft 439 kts 292°
2026-05-01 08:39 44.17119 10.32462 36337 ft 439 kts 292°
2026-05-01 08:39 44.17974 10.28386 36209 ft 438 kts 292°
2026-05-01 08:40 44.19683 10.20238 35692 ft 439 kts 292°
2026-05-01 08:40 44.20539 10.16144 35440 ft 440 kts 292°
2026-05-01 08:40 44.21391 10.12049 35195 ft 441 kts 292°
2026-05-01 08:41 44.22396 10.08038 34945 ft 435 kts 300°
2026-05-01 08:41 44.23812 10.04365 34685 ft 426 kts 309°
2026-05-01 08:41 44.25504 10.01003 34217 ft 422 kts 311°
2026-05-01 08:41 44.27210 9.97679 33700 ft 420 kts 311°
2026-05-01 08:42 44.28901 9.94383 33225 ft 416 kts 311°
2026-05-01 08:42 44.30557 9.91154 32758 ft 413 kts 311°
2026-05-01 08:42 44.32220 9.87903 32281 ft 410 kts 311°
2026-05-01 08:42 44.33871 9.84666 31814 ft 408 kts 311°
2026-05-01 08:43 44.35505 9.81451 31355 ft 405 kts 311°
2026-05-01 08:43 44.37131 9.78252 30892 ft 402 kts 311°
2026-05-01 08:43 44.38743 9.75079 30440 ft 399 kts 312°
2026-05-01 08:43 44.40344 9.71924 29939 ft 397 kts 312°
2026-05-01 08:44 44.41935 9.68791 29499 ft 393 kts 311°
2026-05-01 08:44 44.43508 9.65683 29064 ft 390 kts 311°
2026-05-01 08:44 44.45072 9.62608 28628 ft 386 kts 314°
2026-05-01 08:44 44.46847 9.59784 28202 ft 378 kts 320°
2026-05-01 08:45 44.48671 9.57145 27774 ft 375 kts 320°
2026-05-01 08:45 44.50476 9.54523 27377 ft 373 kts 320°
2026-05-01 08:45 44.52268 9.51915 26976 ft 370 kts 320°
2026-05-01 08:45 44.54047 9.49319 26572 ft 368 kts 320°
2026-05-01 08:46 44.55790 9.46774 26192 ft 366 kts 320°
2026-05-01 08:46 44.57546 9.44209 25795 ft 363 kts 320°
2026-05-01 08:46 44.59292 9.41658 25402 ft 361 kts 320°
2026-05-01 08:46 44.61030 9.39120 25002 ft 360 kts 320°
2026-05-01 08:47 44.62760 9.36587 24600 ft 359 kts 320°
2026-05-01 08:47 44.64480 9.34066 24194 ft 357 kts 320°
2026-05-01 08:47 44.66190 9.31552 23770 ft 354 kts 320°
2026-05-01 08:47 44.67884 9.29061 23330 ft 352 kts 319°
2026-05-01 08:48 44.69569 9.26580 22915 ft 350 kts 319°
2026-05-01 08:48 44.71243 9.24110 22498 ft 348 kts 319°
2026-05-01 08:48 44.72907 9.21658 22089 ft 346 kts 319°
2026-05-01 08:48 44.74563 9.19223 21748 ft 341 kts 319°
2026-05-01 08:49 44.76107 9.16707 21664 ft 344 kts 311°
2026-05-01 08:49 44.77402 9.13820 21153 ft 352 kts 306°
2026-05-01 08:49 44.78642 9.10869 20758 ft 349 kts 305°
2026-05-01 08:49 44.79866 9.07917 20322 ft 348 kts 305°
2026-05-01 08:50 44.81086 9.04960 19794 ft 350 kts 305°
2026-05-01 08:50 44.82315 9.01987 19268 ft 353 kts 305°
2026-05-01 08:50 44.83554 8.98995 18749 ft 354 kts 304°
2026-05-01 08:50 44.84801 8.95984 18123 ft 357 kts 304°
2026-05-01 08:51 44.86070 8.92923 17416 ft 366 kts 304°
2026-05-01 08:51 44.87367 8.89798 16635 ft 373 kts 304°
2026-05-01 08:51 44.88684 8.86618 15880 ft 378 kts 303°
2026-05-01 08:51 44.90014 8.83404 15146 ft 382 kts 303°
2026-05-01 08:52 44.91358 8.80152 14424 ft 385 kts 303°
2026-05-01 08:52 44.92692 8.76921 13663 ft 387 kts 303°
2026-05-01 08:52 44.94046 8.73625 12874 ft 389 kts 302°
2026-05-01 08:52 44.95394 8.70334 12352 ft 384 kts 302°
2026-05-01 08:53 44.96721 8.67093 11837 ft 377 kts 302°
2026-05-01 08:53 44.97988 8.63997 11346 ft 352 kts 302°
2026-05-01 08:53 44.99365 8.61299 10887 ft 327 kts 316°
2026-05-01 08:53 45.01076 8.59354 10454 ft 306 kts 331°
2026-05-01 08:54 45.02956 8.58163 10002 ft 289 kts 345°
2026-05-01 08:54 45.04898 8.57566 9540 ft 284 kts 351°
2026-05-01 08:54 45.06825 8.57042 9070 ft 280 kts 350°
2026-05-01 08:54 45.08731 8.56516 8647 ft 280 kts 350°
2026-05-01 08:55 45.10639 8.55984 8277 ft 279 kts 350°
2026-05-01 08:55 45.12526 8.55456 8058 ft 274 kts 349°
2026-05-01 08:55 45.14384 8.54937 7836 ft 271 kts 349°
2026-05-01 08:55 45.16229 8.54423 7607 ft 270 kts 349°
2026-05-01 08:56 45.18058 8.53912 7368 ft 266 kts 349°
2026-05-01 08:56 45.19860 8.53412 7116 ft 262 kts 349°
2026-05-01 08:56 45.21641 8.52917 6868 ft 260 kts 349°
2026-05-01 08:56 45.23388 8.52430 6618 ft 251 kts 349°
2026-05-01 08:57 45.25072 8.51961 6358 ft 245 kts 349°
2026-05-01 08:57 45.26733 8.51501 6099 ft 241 kts 349°
2026-05-01 08:57 45.28349 8.51054 5993 ft 240 kts 349°
2026-05-01 08:57 45.29928 8.50639 5985 ft 241 kts 354°
2026-05-01 08:58 45.31569 8.50962 5986 ft 241 kts 24°
2026-05-01 08:58 45.32879 8.52430 5944 ft 245 kts 53°
2026-05-01 08:58 45.33515 8.54654 5755 ft 246 kts 77°
2026-05-01 08:58 45.33836 8.57007 5561 ft 245 kts 77°
2026-05-01 08:59 45.34157 8.59386 5323 ft 244 kts 77°
2026-05-01 08:59 45.34484 8.61825 5062 ft 251 kts 78°
2026-05-01 08:59 45.34809 8.64216 4805 ft 249 kts 77°
2026-05-01 08:59 45.35138 8.66604 4548 ft 244 kts 78°
2026-05-01 09:00 45.35466 8.68941 4334 ft 239 kts 78°
2026-05-01 09:00 45.35804 8.71243 4132 ft 237 kts 73°
2026-05-01 09:00 45.36602 8.73236 3925 ft 234 kts 43°
2026-05-01 09:00 45.37890 8.74653 3723 ft 235 kts 35°
2026-05-01 09:01 45.39240 8.75922 3532 ft 228 kts 34°
2026-05-01 09:01 45.40548 8.77112 3342 ft 219 kts 34°
2026-05-01 09:01 45.41835 8.78198 3130 ft 213 kts 25°
2026-05-01 09:01 45.43251 8.78652 3005 ft 206 kts
2026-05-01 09:02 45.44657 8.78397 2998 ft 200 kts 351°
2026-05-01 09:02 45.45999 8.78031 3012 ft 192 kts 352°
2026-05-01 09:02 45.47289 8.77677 3015 ft 185 kts 351°
2026-05-01 09:02 45.48541 8.77336 3015 ft 182 kts 351°
2026-05-01 09:03 45.49784 8.76996 3008 ft 182 kts 352°
2026-05-01 09:03 45.51024 8.76655 2851 ft 181 kts 351°
2026-05-01 09:03 45.52253 8.76317 2623 ft 180 kts 351°
2026-05-01 09:03 45.53483 8.75979 2405 ft 180 kts 351°
2026-05-01 09:04 45.54706 8.75642 2143 ft 174 kts 351°
2026-05-01 09:04 45.55863 8.75323 1904 ft 164 kts 352°
2026-05-01 09:04 45.56928 8.75030 1694 ft 155 kts 351°
2026-05-01 09:04 45.57982 8.74740 1474 ft 154 kts 350°
2026-05-01 09:05 45.59018 8.74455 1257 ft 151 kts 352°
2026-05-01 09:05 45.60041 8.74173 1050 ft 149 kts 351°
2026-05-01 09:05 45.61054 8.73894 849 ft 148 kts 352°
2026-05-01 09:05 45.62058 8.73611 747 ft 142 kts 351°
2026-05-01 09:06 45.62858 8.73395 737 ft 79 kts 349°
2026-05-01 09:06 45.63141 8.73252 736 ft 30 kts 322°
2026-05-01 09:06 45.63277 8.73035 736 ft 29 kts 304°
2026-05-01 09:06 45.63377 8.72827 736 ft 23 kts 303°
2026-05-01 09:07 45.63367 8.72660 736 ft 18 kts 225°
2026-05-01 09:07 45.63262 8.72549 737 ft 19 kts 213°
2026-05-01 09:07 45.63149 8.72442 738 ft 20 kts 214°
2026-05-01 09:07 45.63053 8.72315 741 ft 19 kts 242°
2026-05-01 09:08 45.63018 8.72149 738 ft 15 kts 259°
2026-05-01 09:08 45.62996 8.71985 736 ft 18 kts 259°
2026-05-01 09:08 45.62974 8.71822 736 ft 14 kts 260°
2026-05-01 09:08 45.62928 8.71753 736 ft 10 kts 177°
2026-05-01 09:09 45.62877 8.71772 736 ft 4 kts 143°
2026-05-01 09:09 45.62876 8.71821 736 ft 6 kts 81°
2026-05-01 09:09 45.62882 8.71865 736 ft 3 kts 79°
2026-05-01 09:09 45.62883 8.71871 736 ft 0 kts 79°